This demonstration page uses our WeatherBlox Daily Observations layout. Learn more.

Left ArrowRight Arrow

41.55636, -103.73856

Hourly Observations for December 29, 2017

Temp ( °F °C ) Dew Point ( °F °C ) Humidity (%) Winds ( mph kmh ) Pressure ( in mb ) Visibility ( mi km ) Precip ( " mm )
12:53 am 00:53 Clear 25 -3.9 21 -6.1 85 85 E 12 19 30.06 1018 10 16 N/A
1:53 am 01:53 Clear 24 -4.4 20 -6.7 84 84 E 10 17 30.04 1017 10 16 N/A
2:53 am 02:53 Clear 17 -8.3 14 -10 88 88 E 8 13 30.03 1017 10 16 N/A
3:53 am 03:53 Clear 18 -7.8 14 -10 84 84 ENE 9 15 30.00 1016 10 16 N/A
4:53 am 04:53 Clear 17 -8.3 14 -10 88 88 NNW 3 6 29.97 1015 10 16 N/A
5:53 am 05:53 Clear 13 -10.6 12 -11.1 96 96 N N/A 29.98 1015 10 16 N/A
6:53 am 06:53 Clear 17 -8.3 14 -10 88 88 NNW 5 7 29.97 1015 10 16 N/A
7:53 am 07:53 Sunny 28 -2.2 18 -7.8 66 66 NW 14 22 29.95 1014 10 16 N/A
8:53 am 08:53 Partly Cloudy 34 1.1 24 -4.4 67 67 WNW 12 19 29.97 1015 10 16 N/A
9:53 am 09:53 Sunny 43 6.1 27 -2.8 53 53 N 31 50 29.98 1015 10 16 N/A
10:53 am 10:53 Partly Cloudy 21 -6.1 15 -9.4 78 78 NNE 14 22 30.19 1022 10 16 N/A
11:44 am 11:44 Partly Cloudy 18 -7.8 11 -11.7 74 74 N 17 28 30.33 1027 10 16 N/A
11:53 am 11:53 Mostly Cloudy 17 -8.3 10 -12.2 74 74 NNE 10 17 30.25 1024 10 16 N/A
12:53 pm 12:53 Cloudy 14 -10 7 -13.9 73 73 NE 15 24 30.27 1025 8 13 N/A
1:53 pm 13:53 Mostly Cloudy 12 -11.1 5 -15 73 73 NE 12 19 30.31 1026 10 16 N/A
1:56 pm 13:56 Mostly Cloudy 12 -11 5 -15 73 73 NNE 10 17 30.45 1031 10 16 N/A
2:08 pm 14:08 Mostly Sunny 12 -11 5 -15 73 73 NNE 12 19 30.45 1031 10 16 N/A
2:53 pm 14:53 Sunny 11 -11.7 4 -15.6 73 73 NNE 12 19 30.37 1028 10 16 N/A
3:30 pm 15:30 Mostly Cloudy 9 -12.8 3 -16.1 77 77 NNE 12 19 30.53 1034 10 16 N/A
3:53 pm 15:53 Cloudy 9 -12.8 2 -16.7 73 73 N 13 20 30.42 1030 10 16 N/A
4:33 pm 16:33 Mostly Clear 7 -13.9 1 -17.2 76 76 NNE 8 13 30.59 1036 10 16 N/A
4:53 pm 16:53 Clear 6 -14.4 1 -17.2 79 79 NE 6 9 30.45 1031 10 16 N/A
5:53 pm 17:53 Mostly Clear 3 -16.1 -1 -18.3 83 83 ENE 8 13 30.49 1033 10 16 N/A
6:12 pm 18:12 Mostly Cloudy 3 -16 -2 -19 78 78 NE 8 13 30.68 1039 10 16 N/A
6:53 pm 18:53 Cloudy 5 -15 N/A 79 79 NE 5 7 30.50 1033 10 16 N/A
7:53 pm 19:53 Cloudy 2 -16.7 -3 -19.4 80 80 NNE 7 11 30.48 1032 10 16 N/A
8:53 pm 20:53 Cloudy 3 -16.1 -2 -18.9 79 79 NNE 8 13 30.46 1031 10 16 N/A
9:53 pm 21:53 Cloudy 4 -15.6 -1 -18.3 80 80 ENE 6 9 30.41 1030 10 16 N/A
10:53 pm 22:53 Cloudy 4 -15.6 -2 -18.9 76 76 ENE 9 15 30.49 1033 10 16 N/A
11:09 pm 23:09 Cloudy 4 -15.6 -2 -18.9 76 76 ENE 7 11 30.68 1039 10 16 N/A
11:45 pm 23:45 Cloudy 4 -15.6 -2 -18.9 76 76 E 7 11 30.68 1039 10 16 N/A
11:53 pm 23:53 Cloudy 4 -15.6 -2 -18.9 76 76 E 7 11 30.49 1033 10 16 N/A

Powered by AerisWeather